Flag for U.S.A. Weather past 2 weeks in Binghamton, New York, U.S.A.

Now
75 °F

Scattered clouds.


Feels Like: 77 °F
Forecast: 68 / 85 °F
Wind: 10 mph from Southwest

Location: Binghamton Regional Airport

Current Time: May 30, 2015 at 11:32:52 AM

Latest Report: May 30, 2015 at 10:53 AM


Visibility: 10 mi

Pressure: 30.10 "Hg

Humidity: 71%

Dew point: 65 °F

Location of BinghamtonLocation

Historic Weather in Binghamton — Graph

°F

Binghamton temperature yesterday

Maximum temperature yesterday: 78 °F (at 3:53 PM)
Minimum temperature yesterday: 50 °F (at 5:57 AM)
Average temperature yesterday: 67 °F

Past Weeks' High & Low Weather Summary

 TemperatureHumidityPressure
High81 °F (May 25, 2:53 PM)100% (May 16, 3:53 AM)30.44 "Hg (May 16, 3:53 AM)
Low32 °F (May 23, 5:53 AM)23% (May 24, 3:53 PM)29.79 "Hg (May 19, 3:53 PM)
Average62 °F68%30.11 "Hg
* Reported May 15 9:53 AM — May 30 9:53 AM, Binghamton, Weather by CustomWeather, © 2015

Note: Actual official high and low records may vary slightly from our data, if they occured in-between our weather recording intervals... More about our weather records

Advertising

Binghamton weather history for previous 24 hours

 ConditionsComfort  
Time TempWeatherWind HumidityBarometerVisibility
9:53 AM
Sat, May 30
73 °FPassing clouds.12 mph76%30.11 "Hg10 mi
8:53 AM70 °FPassing clouds.9 mph84%30.12 "Hg9 mi
7:53 AM68 °FScattered clouds.9 mph87%30.12 "Hg8 mi
6:53 AM67 °FLight rain. Partly sunny.12 mph90%30.12 "Hg8 mi
5:53 AM67 °FPassing clouds.10 mph87%30.11 "Hg7 mi
4:53 AM67 °FPassing clouds.10 mph87%30.11 "Hg10 mi
3:53 AM67 °FClear.10 mph85%30.11 "Hg10 mi
2:53 AM67 °FClear.9 mph81%30.11 "Hg10 mi
1:53 AM68 °FClear.6 mph76%30.12 "Hg10 mi
12:53 AM68 °FClear.7 mph73%30.14 "Hg10 mi
11:53 PM
Fri, May 29
69 °FClear.6 mph68%30.16 "Hg10 mi
10:53 PM70 °FClear.9 mph64%30.16 "Hg10 mi
9:53 PM71 °FClear.7 mph59%30.17 "Hg10 mi
8:53 PM72 °FSunny.7 mph57%30.16 "Hg10 mi
7:53 PM74 °FPassing clouds.3 mph53%30.18 "Hg10 mi
6:53 PM76 °FSunny.6 mph48%30.17 "Hg10 mi
5:53 PM77 °FSunny.8 mph47%30.19 "Hg10 mi
4:53 PM78 °FSunny.5 mph43%30.21 "Hg10 mi
3:53 PM78 °FSunny.7 mph42%30.22 "Hg10 mi
2:53 PM77 °FSunny.6 mph42%30.24 "Hg10 mi
1:53 PM76 °FSunny.7 mph47%30.25 "Hg10 mi
12:53 PM73 °FSunny.3 mph50%30.27 "Hg10 mi
11:53 AM72 °FSunny.6 mph52%30.27 "Hg10 mi
Weather by CustomWeather, © 2015

See weather overviewHow to use our weather pages